MST,Max TemperatureF,Mean TemperatureF,Min TemperatureF,Max Dew PointF,MeanDew PointF,Min DewpointF,Max Humidity, Mean Humidity, Min Humidity, Max Sea Level PressureIn, Mean Sea Level PressureIn, Min Sea Level PressureIn, Max VisibilityMiles, Mean VisibilityMiles, Min VisibilityMiles, Max Wind SpeedMPH, Mean Wind SpeedMPH, Max Gust SpeedMPH,PrecipitationIn, CloudCover, Events, WindDirDegrees
2011-11-1,41,30,24,28,20,15,85,64,38,30.55,30.34,30.14,10,9,1,15,9,18,T,4,Snow,278
2011-11-2,48,36,23,19,10,1,75,45,15,30.49,30.28,29.95,10,10,10,31,20,39,0.00,0,,200
2011-11-3,57,46,34,11,6,-1,27,20,12,29.93,29.78,29.67,10,10,10,29,14,37,0.00,0,,195
2011-11-4,37,31,24,25,20,12,81,58,35,29.83,29.72,29.64,10,9,2,14,7,18,0.01,4,Snow,316
2011-11-5,35,28,21,29,24,18,92,78,64,29.86,29.70,29.60,10,6,1,14,3,18,0.04,7,Snow,244
2011-11-6,37,28,18,17,14,11,80,58,35,30.09,29.93,29.83,10,10,10,20,11,25,0.00,2,,230
2011-11-7,42,30,18,18,15,13,77,55,33,30.16,30.10,29.97,10,10,10,24,14,31,0.00,1,,215
2011-11-8,47,37,26,23,20,18,75,56,37,30.40,30.22,29.99,10,10,7,28,14,33,0.00,3,,233
2011-11-9,47,34,22,23,20,18,85,55,34,30.54,30.41,30.21,10,10,10,16,12,23,0.00,0,,214
2011-11-10,55,46,37,19,15,12,44,32,19,30.20,29.98,29.82,10,10,10,37,23,48,0.00,0,,217
2011-11-11,57,49,41,21,10,6,31,22,13,29.83,29.54,29.27,10,10,10,37,22,46,0.00,0,,227
2011-11-12,47,39,33,34,26,16,96,69,39,29.55,29.44,29.28,10,8,0,29,13,37,0.05,6,Fog-Rain-Snow,258
2011-11-13,48,38,27,25,20,15,69,51,33,29.54,29.41,29.32,10,10,10,37,20,46,0.00,4,,243
2011-11-14,40,27,13,32,26,13,96,76,56,29.89,29.53,29.40,10,7,1,28,10,33,0.03,7,Snow,294
2011-11-15,32,22,12,20,14,8,92,66,39,30.30,30.06,29.77,10,8,1,29,12,35,T,4,Snow,272
2011-11-16,36,25,13,11,4,0,88,55,22,30.33,30.22,29.90,10,10,10,23,14,28,0.00,2,,214
2011-11-17,46,34,21,33,19,11,70,49,27,29.85,29.63,29.45,10,10,10,38,20,47,0.00,1,,232
2011-11-18,21,13,4,16,5,0,92,80,68,30.09,29.86,29.67,10,3,0,20,10,25,0.16,8,Snow,2
2011-11-19,10,2,-6,2,-2,-9,95,81,66,30.17,29.97,29.77,10,5,0,12,6,13,0.02,5,Fog-Snow,68
2011-11-20,36,21,5,18,14,7,83,65,47,30.03,29.96,29.79,10,10,10,17,13,22,0.00,4,,207
2011-11-21,44,35,25,25,22,16,68,57,45,29.95,29.89,29.82,10,10,10,28,12,35,0.00,0,,212
2011-11-22,52,44,36,30,26,21,54,46,38,29.90,29.78,29.69,10,10,10,37,22,46,0.00,0,,211
2011-11-23,60,54,47,29,22,18,46,33,20,29.75,29.62,29.52,10,10,10,44,24,56,0.00,0,,205
2011-11-24,53,44,34,29,24,19,70,50,29,29.71,29.64,29.53,10,10,10,22,11,28,0.00,2,,230
2011-11-25,45,36,26,31,19,11,82,58,34,30.53,29.95,29.57,10,10,10,37,18,47,T,4,Rain,239
2011-11-26,47,33,19,23,13,3,73,48,22,30.64,30.48,30.28,10,10,10,29,17,36,0.00,0,,214
2011-11-27,60,53,45,26,23,19,42,32,22,30.26,29.98,29.82,10,10,6,46,25,60,0.00,0,,221
2011-11-28,52,40,27,30,24,19,78,55,31,30.32,30.22,29.90,10,10,10,45,11,58,0.00,1,,238
2011-11-29,46,43,40,26,23,19,54,44,34,30.20,30.10,29.88,10,10,10,28,17,35,0.00,5,,220
2011-11-30,45,32,18,28,24,19,92,69,45,30.76,30.26,29.81,10,7,0,39,19,48,0.04,7,Fog-Snow,304